Thedford, NE

7:44 PM CDT on August 24, 2016 (GMT -0500)
Thedford

Weather History for KTIF - July, 2013

Change the Weather History Date:

Tuesday, July 30, 2013

  Actual Average (KLBF) Record (KLBF)
Temperature  
Mean Temperature 72 °F 74 °F  
Max Temperature 85 °F 88 °F 105 °F (2002)
Min Temperature 59 °F 61 °F 41 °F (1971)
Degree Days  
Heating Degree Days 0 0  
Month to date heating degree days 0  
Since 1 June heating degree days 51  
Since 1 July heating degree days 0  
Cooling Degree Days 7 10  
Month to date cooling degree days 286  
Year to date cooling degree days 452  
Since 1 June cooling degree days 424  
Growing Degree Days 22 (Base 50)    
Moisture  
Dew Point 61 °F    
Average Humidity 76    
Maximum Humidity 93    
Minimum Humidity 41    
Precipitation  
Precipitation 0.02 in 0.11 in 1.28 in (1932)
Month to date precipitation 2.97  
Year to date precipitation 13.83  
Snow  
Snow 0.00 in 0.00 in 0.00 in (2002)
Month to date snowfall 0.0  
Since 1 June snowfall 0.0  
Since 1 July snowfall 0.0  
Snow Depth -    
Sea Level Pressure  
Sea Level Pressure 30.12 in    
Wind  
Wind Speed 6 mph (SSE)    
Max Wind Speed 28 mph    
Max Gust Speed 47 mph    
Visibility 7 miles    
Events Fog , Rain , Thunderstorm    
T = Trace of Precipitation, MM = Missing Value Source: NWS Daily Summary

Daily Weather History Graph

Daily Weather History Graph

Search for Another Location

Airport or City:

Trip Planner

Search our weather history database for the weather conditions in past years. The results will help you decide how hot, cold, wet, or windy it might be!

Date:

Astronomy

Jul. 30, 2013 Rise Set
Actual Time 6:34 AM CDT 9:02 PM CDT
Civil Twilight 6:02 AM CDT 9:34 PM CDT
Nautical Twilight 5:22 AM CDT 10:13 PM CDT
Astronomical Twilight 4:38 AM CDT 10:57 PM CDT
Moon 12:54 AM CDT (7/30) 3:24 PM CDT (7/30)
Length of Visible Light 15h 31m
Length of Day
14h 28m
Last Quarter, 41% of the Moon is Illuminated
Jul 30
Last Quarter
Aug 6
New
Aug 14
First Quarter
Aug 20
Full
Aug 28
Last Quarter

Hourly Weather History & Observations

Time (CDT) Temp. Heat Index Dew Point Humidity Pressure Visibility Wind Dir Wind Speed Gust Speed Precip Events Conditions
12:15 AM 66.2 °F - 62.2 °F 87% 30.09 in 7.0 mi SSE 8.1 mph - N/A   Overcast
12:35 AM 65.5 °F - 61.9 °F 88% 30.09 in 5.0 mi South 8.1 mph - N/A   Mostly Cloudy
12:55 AM 64.8 °F - 61.7 °F 90% 30.09 in 5.0 mi South 3.5 mph - N/A   Clear
1:15 AM 64.4 °F - 61.3 °F 90% 30.09 in 4.0 mi South 4.6 mph - N/A   Clear
1:35 AM 64.0 °F - 61.3 °F 91% 30.09 in 3.0 mi SSE 3.5 mph - N/A   Scattered Clouds
1:55 AM 63.9 °F - 61.2 °F 91% 30.09 in 3.0 mi Calm Calm - N/A   Clear
2:15 AM 63.3 °F - 60.6 °F 91% 30.10 in 3.0 mi SSW 4.6 mph - N/A   Clear
2:35 AM 63.5 °F - 61.0 °F 91% 30.10 in 3.0 mi Calm Calm - N/A   Clear
2:55 AM 63.0 °F - 60.4 °F 91% 30.10 in 3.0 mi Calm Calm - N/A   Mostly Cloudy
3:15 AM 63.5 °F - 60.8 °F 91% 30.11 in 3.0 mi South 3.5 mph - N/A   Overcast
3:35 AM 63.5 °F - 61.0 °F 91% 30.11 in 3.0 mi South 3.5 mph - N/A   Scattered Clouds
3:55 AM 63.1 °F - 60.6 °F 91% 30.11 in 3.0 mi SSW 5.8 mph - N/A   Clear
4:15 AM 63.1 °F - 60.8 °F 92% 30.11 in 3.0 mi SSW 5.8 mph - N/A   Clear
4:35 AM 63.1 °F - 60.4 °F 91% 30.10 in 4.0 mi SSW 4.6 mph - N/A   Clear
4:55 AM 62.8 °F - 60.1 °F 91% 30.11 in 4.0 mi Calm Calm - N/A   Clear
5:15 AM 61.9 °F - 59.4 °F 91% 30.11 in 4.0 mi Calm Calm - N/A   Clear
5:35 AM 61.3 °F - 59.0 °F 92% 30.11 in 3.0 mi Calm Calm - N/A   Clear
5:55 AM 61.5 °F - 58.8 °F 91% 30.11 in 4.0 mi Calm Calm - N/A   Clear
6:15 AM 59.7 °F - 57.2 °F 91% 30.11 in 2.0 mi Calm Calm - N/A   Clear
6:35 AM 59.9 °F - 57.6 °F 92% 30.12 in 3.0 mi Calm Calm - N/A   Mostly Cloudy
6:55 AM 61.9 °F - 59.9 °F 93% 30.12 in 1.8 mi Calm Calm - N/A   Overcast
7:15 AM 62.8 °F - 60.8 °F 93% 30.13 in 0.2 mi Calm Calm - N/A Fog Fog
7:35 AM 63.0 °F - 60.8 °F 93% 30.13 in 0.5 mi West 3.5 mph - N/A Fog Fog
7:55 AM 63.5 °F - 61.2 °F 92% 30.13 in 0.5 mi West 3.5 mph - N/A Fog Fog
8:15 AM 63.5 °F - 61.3 °F 93% 30.14 in 0.5 mi WSW 3.5 mph - N/A Fog Fog
8:35 AM 63.9 °F - 61.7 °F 93% 30.14 in 1.0 mi West 4.6 mph - N/A   Overcast
8:55 AM 64.4 °F - 62.2 °F 93% 30.14 in 1.2 mi Calm Calm - N/A   Overcast
9:15 AM 64.8 °F - 62.6 °F 93% 30.14 in 1.5 mi Calm Calm - N/A   Overcast
9:35 AM 66.2 °F - 63.9 °F 92% 30.14 in 4.0 mi Calm Calm - N/A   Overcast
9:55 AM 68.9 °F - 63.1 °F 82% 30.14 in 7.0 mi Calm Calm - N/A   Mostly Cloudy
10:15 AM 71.2 °F - 63.3 °F 76% 30.14 in 10.0 mi Calm Calm - N/A   Scattered Clouds
10:35 AM 73.2 °F - 63.3 °F 71% 30.14 in 10.0 mi East 3.5 mph - N/A   Clear
10:55 AM 75.0 °F - 63.9 °F 68% 30.15 in 10.0 mi Calm Calm - N/A   Clear
11:15 AM 77.0 °F - 64.4 °F 65% 30.14 in 10.0 mi SSE 4.6 mph - N/A   Clear
11:55 AM 78.8 °F - 63.0 °F 58% 30.15 in 10.0 mi SSE 8.1 mph - N/A   Clear
12:15 PM 79.7 °F - 63.0 °F 56% 30.15 in 10.0 mi South 8.1 mph - N/A   Clear
12:35 PM 80.6 °F 81.8 °F 62.6 °F 54% 30.15 in 10.0 mi SE 6.9 mph - N/A   Clear
1:15 PM 82.6 °F 83.2 °F 61.5 °F 49% 30.14 in 10.0 mi SE 5.8 mph - N/A   Clear
1:35 PM 82.6 °F 82.9 °F 60.4 °F 47% 30.14 in 10.0 mi ESE 8.1 mph - N/A   Clear
1:55 PM 82.9 °F 83.7 °F 62.1 °F 49% 30.14 in 10.0 mi SSE 9.2 mph - N/A   Scattered Clouds
2:15 PM 84.0 °F 84.7 °F 62.2 °F 48% 30.13 in 10.0 mi ESE 10.4 mph - N/A   Scattered Clouds
2:35 PM 84.2 °F 84.6 °F 61.2 °F 46% 30.12 in 10.0 mi SSE 10.4 mph - N/A   Clear
2:55 PM 84.7 °F 84.8 °F 60.4 °F 44% 30.12 in 10.0 mi SE 8.1 mph - N/A   Clear
3:15 PM 85.1 °F 84.8 °F 59.7 °F 42% 30.11 in 10.0 mi South 5.8 mph - N/A   Clear
3:35 PM 85.8 °F 85.4 °F 59.4 °F 41% 30.11 in 10.0 mi SSE 5.8 mph - N/A   Clear
3:55 PM 82.6 °F 82.6 °F 59.5 °F 45% 30.10 in 10.0 mi SSE 6.9 mph - N/A   Clear
4:15 PM 82.0 °F 82.4 °F 60.1 °F 47% 30.09 in 10.0 mi SSE 6.9 mph - N/A   Clear
4:35 PM 81.1 °F 81.8 °F 60.4 °F 49% 30.09 in 10.0 mi SSE 5.8 mph - N/A   Clear
4:55 PM 80.2 °F 81.2 °F 61.2 °F 52% 30.08 in 10.0 mi SSE 8.1 mph - N/A Thunderstorm Clear
5:15 PM 80.1 °F 81.2 °F 62.1 °F 54% 30.07 in 10.0 mi SSE 6.9 mph - N/A Rain , Thunderstorm Light Thunderstorms and Rain
5:35 PM 79.2 °F - 61.7 °F 55% 30.06 in 10.0 mi South 9.2 mph - N/A Thunderstorm Clear
5:55 PM 75.4 °F - 61.9 °F 63% 30.08 in 10.0 mi SW 8.1 mph - N/A   Clear
6:15 PM 73.6 °F - 62.2 °F 68% 30.09 in 10.0 mi SW 9.2 mph - N/A Thunderstorm Thunderstorm
6:35 PM 72.0 °F - 64.4 °F 77% 30.05 in 10.0 mi SSW 16.1 mph - N/A Rain Light Rain
6:55 PM 76.8 °F - 62.1 °F 60% 30.08 in 10.0 mi WSW 5.8 mph - N/A Rain Light Rain
7:15 PM 74.3 °F - 61.9 °F 65% 30.08 in 10.0 mi SW 5.8 mph - N/A   Scattered Clouds
7:35 PM 75.4 °F - 63.5 °F 66% 30.07 in 10.0 mi South 9.2 mph - N/A   Mostly Cloudy
7:55 PM 76.6 °F - 61.9 °F 60% 30.07 in 10.0 mi SSE 9.2 mph - N/A   Scattered Clouds
8:15 PM 76.1 °F - 62.6 °F 63% 30.08 in 10.0 mi SE 6.9 mph - N/A   Scattered Clouds
8:35 PM 69.3 °F - 58.6 °F 69% 30.14 in 10.0 mi NNE 27.6 mph 47.2 mph N/A   Mostly Cloudy
8:55 PM 66.4 °F - 60.3 °F 81% 30.16 in 10.0 mi ENE 24.2 mph 35.7 mph N/A Rain , Thunderstorm Light Thunderstorms and Rain
9:15 PM 66.0 °F - 61.9 °F 86% 30.15 in 10.0 mi East 26.5 mph 33.4 mph 0.01 in Rain , Thunderstorm Rain
9:35 PM 65.8 °F - 61.3 °F 85% 30.17 in 10.0 mi East 17.3 mph 24.2 mph 0.02 in Rain Light Rain
9:55 PM 65.3 °F - 61.2 °F 86% 30.18 in 10.0 mi ESE 17.3 mph 25.3 mph 0.02 in Thunderstorm Scattered Clouds
10:15 PM 65.3 °F - 61.0 °F 86% 30.19 in 10.0 mi East 13.8 mph 18.4 mph N/A   Scattered Clouds
10:35 PM 65.5 °F - 61.3 °F 86% 30.19 in 10.0 mi SE 11.5 mph - N/A Thunderstorm Scattered Clouds
10:55 PM 65.3 °F - 61.9 °F 89% 30.16 in 10.0 mi ESE 8.1 mph - N/A   Scattered Clouds
11:15 PM 66.4 °F - 63.0 °F 89% 30.16 in 10.0 mi SSE 12.7 mph - N/A   Scattered Clouds
11:35 PM 67.1 °F - 62.4 °F 85% 30.14 in 10.0 mi SSE 16.1 mph 19.6 mph N/A   Scattered Clouds